Theta_e
309 308 309 309 310 310 310 310 310 311 310 311 311 311 311 312 312 312 312 311 311 310 310 310 310 310 309 309 310 311 311 311 313 313 315 316 315 315 315 313 313 313 312 312 312 312 313 313 314 313 314 316 317 317 316 317 317 317 327 328 325 328 320 317 321 321 320 318 315 315 316 316 316 316 315 316 316 316 316 316 316 315 316 316 316 316 317 318
308 308 309 309 310 310 310 310 310 310 310 311 311 311 311 311 311 311 311 310 310 310 310 310 310 310 309 310 310 311 311 310 313 314 316 318 315 315 314 313 313 312 312 312 312 314 315 315 314 314 316 316 317 318 317 318 316 319 328 327 326 327 317 314 317 317 318 316 314 315 316 316 317 315 315 316 315 316 317 317 317 316 315 315 315 315 316 317
308 308 309 309 309 310 310 310 310 310 310 310 310 311 311 311 311 311 310 310 310 310 310 310 310 310 309 309 310 310 310 310 312 314 316 316 315 314 313 312 312 312 313 312 313 315 315 315 315 315 316 317 317 317 318 319 315 318 327 327 323 319 315 316 315 315 318 316 314 315 315 316 316 315 315 315 314 315 316 317 316 317 316 315 315 315 315 316
308 308 309 309 309 309 310 310 310 310 310 310 310 311 311 311 311 310 311 310 310 310 310 310 310 310 309 309 310 310 311 311 312 314 316 315 313 313 312 312 312 312 312 312 313 315 315 316 315 315 316 316 316 316 318 318 316 317 323 325 319 315 318 317 315 316 316 316 315 315 315 315 315 315 315 315 315 314 315 316 316 316 316 315 315 315 315 315
308 308 308 309 309 309 310 310 310 310 310 310 310 311 310 311 311 311 311 310 310 310 310 310 310 309 309 309 309 310 312 313 315 316 316 315 313 313 313 312 312 312 312 312 312 314 315 316 315 315 315 315 315 315 317 317 316 317 317 318 316 315 319 316 315 317 316 316 316 315 316 316 316 316 316 315 317 317 315 315 316 316 316 316 316 315 315 315
308 308 308 309 309 309 310 310 310 310 310 310 310 311 311 311 311 311 310 310 310 310 310 310 310 310 309 309 309 311 313 314 316 316 316 315 314 313 313 313 313 313 313 312 312 313 315 316 315 315 315 316 316 316 317 316 316 318 315 315 316 316 317 315 315 317 316 317 316 316 316 316 316 316 317 315 316 318 317 316 316 317 317 317 316 316 315 315
308 308 308 309 309 309 309 309 310 310 310 310 310 310 310 311 311 310 310 310 310 310 311 310 310 310 309 309 309 310 313 315 315 315 315 314 314 314 315 315 315 314 313 312 312 313 315 316 315 315 316 316 316 315 317 316 316 319 317 315 316 316 315 315 315 316 317 316 316 316 316 316 316 316 316 316 316 316 317 317 316 317 317 317 317 317 316 316
309 308 308 308 309 309 309 309 310 310 310 310 310 310 310 311 311 311 310 310 310 310 311 310 310 309 309 309 309 311 311 313 315 314 314 314 315 315 315 316 316 315 314 314 314 314 315 316 316 315 316 315 315 316 316 315 315 318 317 315 315 315 315 315 315 316 316 317 316 316 316 315 316 316 316 316 316 316 317 317 316 317 316 317 317 317 316 316
309 308 308 308 309 309 309 309 310 310 310 310 310 310 310 311 311 311 310 310 310 310 310 310 310 309 309 309 310 314 313 313 315 314 314 315 315 315 315 315 316 316 315 315 315 316 316 316 316 317 316 316 316 316 316 316 316 317 316 315 315 314 314 314 314 315 316 316 316 316 316 315 315 316 317 316 316 316 316 316 316 316 316 317 316 316 316 315
310 309 308 308 308 309 309 309 310 310 310 310 310 310 310 311 311 310 310 310 310 310 310 310 310 309 309 309 311 314 316 316 316 314 314 315 315 314 314 315 315 315 316 316 316 316 317 317 317 317 318 317 316 316 317 318 317 316 316 316 315 314 314 315 315 315 316 316 315 317 317 316 316 316 318 317 317 317 316 316 316 316 316 316 316 316 316 315
310 309 309 308 308 309 309 309 310 310 310 310 310 310 310 311 311 310 309 310 310 311 310 310 310 309 309 309 312 314 316 317 315 314 314 314 314 314 313 313 314 316 316 316 316 316 317 318 318 317 318 317 317 317 317 318 317 316 316 316 315 315 315 315 315 315 316 317 315 316 316 315 316 317 318 317 317 318 317 317 316 316 317 316 316 316 316 317
310 309 309 308 308 308 309 309 309 309 310 310 310 310 310 310 311 310 310 309 310 310 310 310 309 309 309 309 310 314 316 315 314 315 314 314 313 313 313 313 314 315 315 315 316 316 316 317 317 317 317 316 317 317 317 317 317 317 317 318 316 315 317 316 315 315 316 317 316 316 316 318 318 318 318 317 317 319 317 317 316 316 316 317 317 317 317 317
312 310 309 309 308 308 309 309 309 309 310 310 310 310 310 311 310 310 310 309 309 310 309 310 309 309 309 309 310 312 315 314 313 315 315 314 313 313 313 314 314 315 315 316 316 316 316 316 317 317 317 316 317 316 317 317 317 317 317 319 319 317 320 317 315 315 315 316 316 315 317 322 323 317 317 317 316 318 318 317 317 317 317 317 317 317 318 317
313 311 309 309 308 308 308 309 309 309 310 310 310 310 310 310 310 310 309 308 308 308 309 309 309 308 308 312 314 312 313 314 313 315 314 313 312 313 314 314 315 315 315 316 316 316 316 316 317 317 318 317 316 316 317 316 317 319 316 320 323 320 322 320 314 315 316 316 316 316 318 322 323 316 316 318 317 317 318 317 317 317 317 318 318 317 318 317
313 312 310 309 309 308 308 308 309 309 309 310 309 310 310 310 310 310 309 307 307 307 309 309 308 309 309 312 314 314 314 313 313 314 314 313 312 313 315 315 315 315 316 316 316 316 316 316 316 317 317 316 317 318 319 318 318 319 318 322 323 321 322 321 315 315 317 316 315 317 319 322 321 317 317 318 318 318 318 318 317 317 318 318 318 318 318 318
313 312 310 309 309 308 308 308 309 309 309 309 309 309 309 310 310 309 308 306 306 307 308 308 308 310 311 312 314 315 314 314 313 313 313 312 312 313 315 315 314 315 315 316 317 316 316 317 316 316 316 316 320 324 322 320 321 321 321 323 323 321 321 321 317 315 316 317 315 315 318 321 320 317 318 318 318 318 318 318 317 317 318 318 317 318 318 318
312 312 311 310 309 308 308 309 309 309 309 309 309 309 309 310 310 308 306 305 306 307 308 310 309 309 312 313 315 315 314 314 313 313 313 312 312 314 315 315 314 315 315 316 316 316 317 317 316 316 316 317 320 326 324 319 321 321 318 320 324 323 320 321 320 315 315 317 317 316 317 321 320 315 316 318 318 318 317 317 318 318 317 318 318 318 318 318
313 312 311 310 309 309 308 309 308 309 309 309 309 309 309 309 308 307 305 305 307 307 308 312 311 310 312 312 315 315 313 314 313 313 313 312 313 314 315 315 313 315 315 316 316 317 316 314 317 320 317 317 318 324 330 325 324 325 320 319 322 321 319 322 321 317 317 317 317 318 317 319 319 315 314 316 317 316 317 317 317 318 317 317 318 318 318 318
313 312 311 310 309 309 308 308 308 309 309 308 308 308 308 308 306 305 305 306 308 308 310 312 311 312 313 311 313 316 314 314 314 313 313 313 314 314 316 316 314 316 315 316 317 315 316 315 318 323 318 318 318 321 330 330 325 326 327 326 324 319 317 319 319 316 316 318 318 318 317 317 318 316 313 315 317 316 316 317 317 317 317 317 317 317 318 318
312 311 311 310 309 309 308 308 308 308 308 308 308 308 308 308 309 309 308 307 308 311 312 311 311 313 314 311 313 316 314 314 314 313 313 313 314 315 316 316 315 316 316 320 319 314 320 323 322 327 325 321 321 320 323 322 320 323 326 326 323 320 317 317 319 316 314 317 321 320 319 317 316 315 313 313 315 315 314 315 315 317 317 317 317 317 318 318
312 311 311 311 309 309 308 308 308 308 308 308 307 307 307 308 310 312 310 308 309 313 313 312 312 313 314 312 314 316 314 313 314 313 313 313 314 315 316 317 317 318 317 318 318 316 323 326 326 332 327 320 319 319 319 319 319 324 326 324 322 323 319 317 319 318 314 316 323 323 319 318 317 315 313 313 314 314 314 314 314 316 317 316 317 317 318 318
312 311 311 311 309 309 308 308 308 308 307 307 307 308 308 307 311 312 310 308 308 312 313 312 313 314 315 314 314 315 313 314 315 313 313 313 314 316 316 318 319 321 318 316 319 321 322 327 331 327 318 316 318 319 320 322 324 327 326 323 325 325 320 317 320 319 316 317 323 326 320 318 317 315 313 311 313 314 314 315 315 316 317 316 317 317 317 317
312 311 311 310 309 308 308 307 307 307 307 308 308 308 308 307 311 313 309 307 308 309 311 312 314 314 315 315 315 315 313 314 315 314 313 313 315 316 316 317 319 320 319 319 323 321 319 325 326 317 314 318 319 320 324 323 324 328 326 323 326 326 321 319 319 318 318 317 321 325 321 318 317 317 317 314 313 314 315 315 316 316 317 317 317 317 317 317
312 311 310 310 309 308 307 306 307 307 307 308 307 309 309 307 310 312 310 309 310 310 309 310 313 313 314 315 314 315 314 313 314 314 313 313 315 316 316 316 317 319 319 321 323 322 322 321 317 314 319 324 320 320 326 323 319 324 329 328 327 324 319 320 320 320 322 321 320 321 320 324 325 324 328 323 315 314 315 315 316 317 317 317 317 317 317 318
313 311 310 309 308 308 307 306 307 307 307 308 308 309 310 308 310 311 311 311 313 313 310 310 313 313 313 314 313 315 316 314 315 314 313 314 315 315 316 315 315 318 319 319 320 321 321 316 315 318 322 326 324 321 326 325 319 319 324 327 326 325 324 327 328 325 325 323 321 318 317 329 335 328 332 335 326 322 317 313 315 318 318 317 317 317 317 318
313 310 309 308 307 308 307 306 307 307 307 307 308 311 310 310 311 310 313 315 315 313 311 310 312 312 313 313 313 314 315 315 316 315 313 314 315 315 316 316 315 317 318 317 317 318 318 316 320 324 325 327 326 320 322 325 321 316 318 323 329 332 330 332 331 323 322 321 319 319 318 324 326 319 324 333 333 332 324 316 315 317 318 318 318 318 318 318
312 310 309 308 307 307 307 307 307 306 307 307 308 311 311 311 311 309 314 318 315 313 311 310 310 312 313 313 313 313 314 316 316 315 314 315 315 315 316 316 315 315 315 316 318 317 318 320 322 327 329 328 325 321 321 323 323 319 320 325 333 334 327 330 329 322 324 323 322 325 321 320 323 320 320 320 323 330 329 324 319 315 317 318 318 318 318 319
311 310 309 308 307 307 308 309 307 306 308 308 308 311 311 311 310 310 314 315 313 313 311 310 310 312 313 312 312 313 315 316 317 315 314 315 316 314 315 316 317 318 315 316 321 318 317 324 325 325 328 327 326 325 324 324 324 322 322 326 332 331 328 332 331 326 326 322 322 327 320 318 326 326 320 315 318 324 326 327 321 315 318 318 318 319 319 320
310 310 309 308 308 309 311 311 308 306 308 309 308 310 311 311 309 311 314 312 311 313 311 311 312 312 313 313 313 314 314 315 316 317 314 315 317 314 315 315 315 318 313 315 325 321 316 320 322 323 326 326 325 323 323 327 325 320 321 326 331 331 330 331 329 328 329 322 321 327 322 316 318 322 320 315 317 321 322 323 319 315 318 318 318 320 320 321
312 310 309 308 309 311 313 312 307 306 309 309 308 310 311 311 310 310 310 310 314 315 310 310 313 313 313 314 313 313 314 315 316 316 314 315 316 314 315 314 314 319 319 321 326 321 315 314 315 319 320 321 320 318 318 322 320 318 324 332 332 331 332 332 331 329 326 322 325 328 324 317 313 320 325 319 320 322 319 320 319 315 317 319 320 321 321 322
313 312 310 309 309 311 312 312 308 306 308 309 309 310 311 313 314 310 308 311 317 316 310 311 314 314 313 314 314 313 315 316 314 315 315 316 316 315 315 314 317 322 323 323 323 319 318 317 315 316 315 315 319 318 316 318 319 322 330 332 324 327 334 333 330 328 322 323 329 328 324 317 313 320 325 324 327 324 318 321 323 318 317 320 322 321 321 321
313 313 312 309 309 310 311 312 310 307 309 310 309 310 312 314 313 312 311 310 315 316 313 313 315 314 313 314 314 315 318 318 314 314 317 318 317 317 316 317 320 322 320 321 321 319 322 322 317 315 314 315 321 323 319 320 325 326 327 325 317 319 328 328 328 328 325 324 325 324 322 317 316 320 321 324 329 324 318 319 320 318 317 321 322 322 322 321
313 313 312 311 310 309 310 312 311 309 310 310 309 311 314 313 311 312 313 311 314 316 314 315 315 314 313 314 314 314 317 319 315 314 316 317 317 316 316 318 320 322 322 322 322 320 322 322 317 315 316 316 319 322 319 320 325 323 322 323 320 319 322 324 325 324 324 326 322 319 320 321 322 324 323 323 322 319 317 316 318 319 317 319 320 320 321 320
313 313 313 312 311 310 310 311 312 310 310 311 309 311 314 312 310 311 312 312 316 317 314 315 315 314 313 313 314 314 315 317 316 315 317 317 317 316 316 316 316 322 326 322 319 320 321 322 321 317 316 318 318 319 320 323 322 321 323 322 320 322 324 324 324 322 323 327 323 318 321 325 325 323 322 318 315 316 318 317 319 319 318 319 318 319 320 319
314 314 314 313 313 311 310 311 312 311 311 311 309 311 312 310 311 311 310 313 320 320 315 314 314 313 314 314 314 313 315 318 316 316 318 317 316 316 316 315 315 319 323 318 317 318 316 320 323 317 314 318 319 316 318 322 318 319 323 321 320 324 325 322 324 326 325 324 322 320 324 327 323 321 319 316 315 317 317 317 319 317 318 319 318 318 319 319
316 315 315 314 314 313 311 310 311 311 311 311 310 310 311 310 310 311 311 316 321 318 315 314 314 314 314 316 316 312 314 320 317 316 318 316 315 316 315 315 314 315 316 315 319 319 316 318 319 316 314 315 317 316 316 317 317 318 320 323 326 324 322 321 320 320 320 318 319 319 321 323 320 318 318 317 319 319 316 316 315 316 318 317 317 318 317 318
315 315 316 315 315 315 313 311 311 311 311 312 310 309 310 309 310 313 315 317 317 316 314 315 315 315 314 316 318 314 315 320 317 316 318 316 317 317 315 315 314 314 314 313 319 323 322 321 318 317 318 314 312 315 314 314 317 321 321 323 324 320 321 326 323 319 318 317 320 318 316 317 317 318 321 319 318 320 318 315 313 314 317 316 317 318 317 318
313 314 316 316 316 316 314 312 311 311 312 313 311 310 310 310 309 311 315 316 315 316 316 318 317 315 315 316 317 315 316 318 317 317 318 316 317 317 315 316 315 313 313 312 315 320 321 320 316 315 318 316 314 316 317 315 315 320 321 319 322 324 324 325 322 320 318 317 321 321 315 314 315 317 319 316 316 321 320 317 315 314 314 316 317 318 318 318
312 314 315 316 316 316 315 313 311 311 313 313 312 311 311 310 309 311 315 316 316 316 317 321 320 316 316 317 317 317 316 316 317 317 317 316 316 317 314 316 317 313 311 311 315 319 319 317 316 315 315 316 316 318 320 319 316 317 318 316 321 326 325 324 321 320 320 318 319 319 315 316 319 320 319 316 318 319 317 319 320 314 313 316 317 318 318 318
312 311 312 314 315 316 315 313 312 311 313 313 311 310 310 309 309 310 314 316 316 316 317 320 320 317 317 317 317 317 316 316 317 316 317 315 315 316 314 314 317 315 312 311 314 319 318 315 316 316 314 316 318 319 319 320 319 319 319 320 321 320 321 323 321 321 325 322 321 319 316 320 324 324 321 319 319 320 318 322 321 313 314 317 317 318 318 318
312 311 310 312 314 315 315 313 312 312 312 313 312 311 310 312 312 311 312 314 316 315 316 319 319 317 319 318 317 317 316 317 317 316 316 315 314 316 315 314 316 316 314 313 315 317 316 316 320 319 317 319 320 319 316 317 319 319 319 320 320 319 320 320 319 320 323 324 326 322 316 318 322 322 322 321 322 320 316 316 317 314 315 318 318 318 319 318
312 312 312 312 312 314 315 312 309 310 311 311 311 311 311 313 316 314 311 312 316 315 315 318 318 317 317 317 317 317 317 317 317 317 317 315 315 316 316 315 315 315 315 315 316 315 315 319 323 321 319 318 317 315 313 315 318 318 318 319 319 320 321 320 321 323 323 324 326 323 318 317 318 323 325 322 320 318 314 314 316 316 317 318 318 318 319 319
310 311 313 313 312 313 314 310 306 308 310 310 310 311 311 312 316 316 313 313 315 316 316 316 316 316 317 318 317 317 316 316 317 317 317 316 315 315 315 315 315 315 315 317 317 314 314 318 319 318 317 317 318 317 314 316 319 319 320 320 319 320 322 324 327 326 325 326 323 320 319 318 320 324 319 313 313 314 315 316 316 317 318 319 319 319 319 319
309 310 311 313 313 313 313 310 308 309 309 308 309 310 310 311 313 316 318 317 315 316 317 315 315 315 318 319 318 317 316 316 316 316 317 318 317 315 314 314 316 316 315 317 317 314 316 319 318 317 317 318 321 322 319 319 319 321 324 322 319 320 321 321 322 320 321 325 323 320 319 317 324 328 319 317 321 317 314 316 316 317 318 318 320 319 318 318
309 309 309 310 312 313 313 310 308 309 309 308 309 309 310 311 311 312 315 316 314 314 316 316 315 314 317 319 317 317 316 316 317 317 317 318 317 315 314 315 316 315 315 316 314 314 319 321 317 316 316 317 320 321 320 320 319 319 324 323 318 319 318 318 319 318 318 321 320 319 317 315 320 324 321 325 330 322 317 317 317 317 318 318 319 318 318 318
309 310 310 309 309 311 312 310 308 308 308 308 309 309 309 311 311 310 311 313 313 313 314 316 315 313 317 319 317 317 317 315 319 320 317 317 320 318 315 315 315 314 315 315 312 316 323 321 315 315 316 315 316 318 319 321 320 319 321 321 319 319 318 317 319 319 317 317 317 318 317 316 317 318 320 324 328 327 323 317 316 317 317 317 318 317 317 318
308 309 310 310 309 309 309 309 308 308 308 308 309 309 309 310 311 311 312 313 313 313 313 316 316 315 317 319 317 318 317 315 317 320 317 317 322 319 315 315 316 314 315 314 312 317 324 319 315 316 316 314 315 319 320 320 320 320 319 319 319 318 318 318 317 318 317 316 317 317 316 316 315 315 318 320 323 325 319 313 314 316 316 316 317 316 317 317
307 308 309 310 310 309 308 308 309 308 307 308 309 309 309 309 310 311 312 312 312 312 313 315 317 318 318 318 317 318 319 317 316 317 317 318 321 319 315 316 315 313 316 315 312 316 322 320 318 316 315 315 316 319 321 320 318 319 318 318 318 318 318 318 317 317 317 317 317 315 317 318 315 315 317 317 316 316 314 313 314 315 315 316 316 316 316 316
306 307 308 309 310 310 308 309 309 308 307 307 308 308 309 309 310 310 312 313 313 313 314 315 317 318 318 318 317 317 319 319 317 316 317 319 321 320 318 319 316 312 315 318 314 313 318 321 321 317 315 316 315 316 320 320 317 317 318 317 317 317 317 317 317 316 317 317 317 316 318 318 315 316 318 316 313 313 313 314 315 314 316 316 315 316 316 316
305 305 306 308 309 309 309 309 310 309 307 307 308 309 308 309 310 309 310 312 313 313 313 314 316 317 317 317 317 316 317 319 319 318 318 320 321 319 319 320 319 315 314 318 316 313 314 321 322 318 316 317 316 315 319 320 319 319 319 318 316 315 316 316 317 317 317 317 317 317 318 317 315 315 316 314 314 314 314 314 315 315 316 315 315 315 315 315
304 305 306 307 308 309 309 310 310 309 308 307 308 309 309 308 309 310 310 311 312 313 313 314 314 315 314 314 316 317 317 318 320 319 318 318 318 317 317 317 317 318 317 317 318 315 315 320 321 319 317 317 316 316 318 319 319 319 321 320 317 315 315 315 316 317 317 318 318 318 318 317 315 315 314 313 313 313 313 314 314 315 315 315 315 314 314 315
303 304 304 305 307 308 309 310 310 309 309 307 307 308 309 309 309 310 310 311 311 311 312 313 313 314 314 314 314 315 314 315 316 315 314 315 314 314 315 313 313 317 318 317 318 318 318 319 320 320 318 316 317 319 319 319 319 318 318 318 317 316 315 315 316 316 316 316 318 318 317 316 315 315 317 316 314 313 313 313 313 314 314 314 314 314 313 313
Wind_Speed
18 19 19 19 20 20 20 20 20 19 19 19 18 18 17 16 16 15 14 13 12 11 11 11 10 9 8 7 7 8 7 5 4 6 8 7 8 7 6 6 5 6 5 6 6 6 6 5 4 6 8 5 4 5 6 6 3 1 2 3 1 2 0 3 3 5 6 5 7 13 13 9 6 6 9 7 8 10 9 7 8 8 8 6 5 6 8 11
19 20 20 20 20 20 20 20 20 19 19 19 18 17 16 15 15 14 13 12 12 11 11 11 10 9 8 7 8 8 7 6 5 7 8 6 6 7 6 6 6 6 6 7 8 8 8 6 4 5 6 5 4 5 5 5 5 2 3 3 2 3 0 5 1 5 6 8 11 15 14 9 9 12 10 5 6 10 7 6 7 8 8 9 8 9 9 11
20 20 20 20 20 20 20 20 20 19 19 18 18 17 16 15 14 14 13 12 12 11 11 11 10 8 8 7 7 7 6 6 6 7 7 5 5 6 6 6 6 7 7 8 10 10 8 6 5 6 6 5 4 5 5 4 5 2 4 3 3 5 1 7 7 3 7 15 15 14 12 6 10 14 11 6 5 7 7 8 9 11 12 12 12 12 12 12
22 22 21 21 21 20 20 20 20 19 19 18 17 16 15 15 14 14 13 12 12 11 12 12 10 9 7 7 7 7 6 4 5 6 6 4 4 6 6 6 6 7 7 9 10 9 8 6 5 7 6 5 5 6 5 5 4 1 3 4 3 3 2 4 6 7 9 19 16 13 9 7 10 12 10 8 5 3 11 15 13 12 14 15 16 16 14 14
23 22 22 22 21 21 20 20 20 19 18 18 17 16 16 15 14 13 13 13 12 12 12 12 11 9 7 7 7 7 6 1 3 6 7 5 5 6 6 6 7 7 8 9 9 9 9 7 5 6 4 3 5 5 4 6 6 3 3 3 0 3 2 1 3 8 10 17 14 11 8 9 11 10 10 9 6 4 11 18 17 13 12 13 15 17 17 16
23 23 23 22 22 21 21 20 19 19 18 18 17 17 16 15 14 13 13 13 13 13 13 13 11 9 7 7 7 8 7 2 0 5 8 7 6 7 7 7 7 7 8 8 8 10 10 8 5 5 3 2 5 5 3 8 7 3 1 4 5 3 5 3 3 8 10 14 12 8 6 9 9 6 9 10 9 5 5 9 12 12 11 12 13 15 18 17
23 23 23 23 22 21 21 20 20 19 18 18 17 16 16 15 14 13 13 13 13 13 13 13 12 10 8 7 7 8 9 4 1 4 8 8 7 8 7 7 8 7 8 9 9 10 9 8 6 6 2 1 5 5 4 7 6 4 1 2 5 5 6 5 5 7 9 12 9 6 6 7 6 4 5 10 13 9 5 4 5 6 8 12 13 14 14 14
22 23 23 24 24 22 21 21 20 19 18 17 17 16 16 15 14 13 13 13 13 14 14 13 12 10 8 8 7 6 8 7 3 5 9 9 9 9 8 8 8 8 9 10 10 9 7 6 7 7 2 2 6 5 4 5 3 3 3 3 5 4 5 6 6 6 7 8 6 5 5 3 3 3 5 11 14 13 12 10 10 7 6 11 13 13 12 13
22 23 23 24 24 24 23 22 20 20 19 18 17 16 15 14 14 13 13 13 13 14 14 14 12 11 8 8 6 4 6 7 4 7 11 11 11 10 9 8 8 9 10 10 9 8 7 5 4 5 2 3 8 6 4 5 1 1 7 8 7 5 6 7 6 5 5 5 4 3 1 0 2 2 7 14 14 14 16 13 12 11 10 12 12 13 13 13
22 23 24 24 24 25 24 23 22 21 20 18 17 16 15 14 14 13 13 13 13 14 14 14 13 11 9 8 7 3 5 8 7 10 13 13 12 10 9 8 9 9 9 10 10 8 8 5 4 5 4 4 7 5 3 5 2 6 12 11 9 8 7 6 5 6 5 4 3 3 1 3 2 1 6 13 10 11 17 16 14 14 14 14 15 15 15 16
22 23 24 24 24 24 24 24 23 22 21 19 18 17 15 14 14 13 13 13 14 14 14 14 13 11 10 9 9 6 4 7 10 12 15 13 11 9 8 8 8 8 8 9 10 9 7 5 4 5 3 4 6 5 5 7 7 13 15 9 7 7 5 5 6 7 5 3 3 2 2 5 0 2 10 15 9 9 16 19 18 17 16 16 16 16 17 18
23 23 23 24 24 24 25 24 23 23 21 20 18 17 15 14 13 13 14 14 14 14 15 15 14 12 10 10 12 9 4 7 12 15 16 13 11 9 8 7 7 7 7 8 9 9 7 4 5 3 4 6 5 4 5 7 9 13 11 6 2 2 1 5 6 7 5 3 4 3 4 6 2 7 15 14 9 10 12 17 20 19 18 18 17 17 18 18
22 23 23 24 24 24 25 25 24 23 21 20 18 17 15 14 13 13 14 14 14 15 15 16 14 12 10 8 11 11 5 8 15 16 16 13 10 8 7 7 7 7 7 7 8 10 8 5 6 6 8 8 4 5 6 6 8 7 4 4 3 4 3 7 5 6 5 4 5 4 1 6 6 14 19 14 11 11 12 16 19 20 19 18 17 18 18 18
23 24 24 24 25 25 25 25 25 24 22 20 18 17 15 14 13 13 14 15 15 16 16 16 14 13 11 6 6 10 9 11 16 17 16 13 10 9 7 7 7 7 6 7 8 9 8 7 7 8 9 8 8 9 6 4 4 3 2 2 3 2 4 6 4 8 5 3 5 6 1 6 8 14 15 10 12 13 15 17 18 20 20 20 19 20 21 21
23 24 24 24 25 26 25 25 25 24 22 20 18 16 15 14 13 13 14 15 15 15 16 16 15 11 9 6 4 8 11 14 17 18 16 13 10 9 8 7 7 7 7 8 8 8 9 8 7 7 8 9 10 8 4 3 2 3 3 2 2 3 3 6 2 9 5 3 5 6 1 6 9 12 7 4 11 13 17 18 18 20 20 21 22 22 22 21
22 23 24 25 25 26 25 25 24 23 22 19 17 16 15 14 13 13 14 14 14 15 15 13 14 11 5 4 6 8 12 15 16 18 17 13 11 10 9 7 6 7 8 9 8 9 10 8 8 8 8 7 6 5 5 4 4 3 3 2 2 3 2 4 2 5 5 4 3 3 2 4 5 6 2 5 10 13 16 17 18 20 21 22 22 22 22 21
22 22 23 25 25 26 25 24 23 23 21 19 17 16 15 13 13 13 13 14 13 13 13 10 11 11 4 4 7 9 13 15 16 18 16 14 12 10 9 7 7 8 9 10 9 10 9 7 8 6 3 3 3 5 5 2 3 3 1 1 4 3 4 2 3 3 5 5 2 3 3 6 8 9 9 8 10 13 16 18 19 20 21 23 23 24 24 24
23 21 22 24 25 25 24 23 23 22 20 18 17 16 15 13 13 13 13 14 13 12 11 9 10 7 6 8 9 10 14 14 15 17 16 15 12 12 10 7 9 9 10 9 7 7 6 4 5 3 2 2 2 5 4 3 4 4 3 2 3 2 3 3 3 4 5 4 2 3 4 9 11 14 18 18 16 17 20 21 21 23 25 26 25 25 25 26
24 21 20 22 23 25 25 24 24 22 20 19 18 17 15 14 12 13 14 15 15 10 5 11 15 5 2 12 13 10 13 14 14 17 17 16 13 12 11 8 9 8 7 5 3 4 5 4 4 3 1 3 3 5 6 7 7 7 6 5 3 2 2 3 2 2 4 3 4 6 6 9 10 11 16 21 21 22 25 24 26 29 30 31 29 28 27 28
24 21 20 21 23 25 25 25 24 22 22 20 20 19 15 14 10 7 14 17 17 6 1 13 20 6 2 13 19 13 13 13 14 18 18 16 14 12 10 9 7 4 2 3 3 2 4 4 2 3 5 6 6 7 7 5 6 7 5 4 3 3 2 4 2 2 3 3 6 7 7 9 10 10 14 22 22 21 24 25 28 32 33 34 32 29 29 30
23 22 20 21 23 25 26 26 25 24 24 22 23 20 14 16 9 5 12 14 16 8 3 11 20 8 1 10 19 17 14 13 14 18 18 17 15 11 9 7 4 2 1 5 5 2 4 3 4 6 7 7 6 6 6 4 6 6 5 5 3 0 2 3 1 2 3 2 5 4 5 10 12 10 13 20 16 18 26 25 26 31 33 34 31 30 30 29
22 21 21 21 23 26 27 28 27 27 26 24 27 20 14 19 12 8 13 8 13 12 2 8 15 8 4 8 16 16 12 9 10 16 18 18 16 10 9 6 4 2 1 5 6 4 4 1 7 8 6 4 3 5 8 6 6 5 4 5 2 1 1 3 3 3 2 2 5 5 5 11 14 11 13 18 18 23 30 27 27 31 32 34 33 31 30 28
20 19 20 21 23 25 27 28 29 29 29 27 28 21 16 21 13 9 14 6 9 16 9 8 11 10 9 10 16 16 11 8 9 16 19 19 17 11 10 7 4 4 2 4 5 4 2 4 7 6 5 7 6 5 8 6 5 4 4 5 1 3 0 1 4 4 1 1 3 6 6 8 12 11 11 17 21 26 30 28 29 32 34 36 34 31 29 28
18 18 20 21 22 25 26 28 30 31 31 28 28 23 18 22 16 13 15 5 2 13 16 13 10 13 13 11 15 15 10 9 9 16 22 22 18 11 9 8 5 4 3 5 8 6 4 5 3 3 5 7 5 4 7 6 2 2 3 5 3 2 2 2 2 3 3 4 3 4 7 6 6 7 8 9 9 17 24 25 29 34 36 36 34 31 29 28
20 19 20 22 22 24 26 28 31 32 30 29 28 23 20 23 19 16 13 2 1 7 13 14 10 13 16 12 14 14 9 7 7 15 23 23 19 11 6 9 6 3 6 6 7 4 5 4 1 5 5 6 7 3 3 6 2 3 1 4 6 5 4 2 3 4 5 5 3 3 4 6 5 5 7 6 4 7 12 14 25 34 33 32 31 29 28 26
19 18 19 22 22 26 26 24 29 32 29 29 27 22 22 23 20 20 11 3 2 3 6 13 10 12 16 14 16 15 6 4 6 15 24 22 18 12 6 6 4 3 7 5 4 2 2 1 3 6 5 7 7 2 3 6 5 1 3 3 5 7 6 5 5 4 2 3 4 3 1 6 6 5 8 8 6 8 6 8 20 27 25 25 26 24 21 18
17 16 18 21 24 27 24 19 27 33 27 27 27 21 22 21 18 19 9 6 3 5 7 10 10 12 14 14 20 14 3 6 8 13 24 20 16 13 6 4 3 3 5 5 2 2 1 3 5 6 6 6 6 2 3 6 7 2 4 2 5 8 6 4 6 3 2 3 5 2 3 4 6 6 9 9 7 8 9 10 15 19 21 21 20 17 14 12
17 17 18 20 24 25 21 18 26 32 25 24 26 22 20 20 18 16 7 3 3 6 6 8 10 13 14 17 22 12 8 14 9 10 22 19 13 11 5 5 6 5 3 6 4 4 1 5 4 5 5 3 4 3 3 7 6 4 4 4 6 7 6 5 6 2 1 2 6 4 3 2 7 6 5 5 5 7 11 12 11 15 19 18 16 14 11 11
14 17 19 21 22 20 18 18 25 29 23 23 25 21 20 21 17 10 4 1 4 4 4 10 12 13 16 17 15 10 12 11 5 11 21 17 12 8 3 5 8 6 2 5 5 3 1 3 4 6 5 3 4 2 2 5 4 4 3 5 6 5 5 5 5 3 3 3 4 5 4 2 6 4 2 2 3 8 11 10 10 15 18 15 12 9 9 11
12 14 18 22 23 20 19 19 26 28 22 22 23 19 21 19 12 6 3 3 3 2 3 9 10 12 17 13 5 7 9 3 6 15 14 10 10 7 5 5 5 5 3 7 4 1 2 1 1 3 4 5 5 3 4 4 7 7 5 6 6 6 5 4 3 4 3 4 6 8 8 3 4 4 3 4 4 8 8 6 8 13 14 10 7 7 9 10
13 13 16 22 26 24 21 20 26 28 23 24 23 20 19 11 4 4 6 3 2 2 3 4 5 10 17 13 5 5 4 3 8 14 8 4 6 4 5 5 4 5 2 4 3 4 5 3 0 1 3 6 7 5 7 6 6 7 5 5 4 4 4 5 5 4 2 5 7 7 5 5 5 5 2 5 6 5 7 6 8 8 6 6 10 9 9 9
15 15 14 18 24 24 21 20 24 28 24 24 25 22 14 5 1 4 4 2 2 4 5 5 5 8 12 11 7 6 5 3 6 8 6 5 4 4 4 5 4 4 1 3 1 3 3 1 2 2 2 5 6 5 4 6 5 5 5 6 4 2 3 3 3 1 2 6 6 4 1 3 7 6 5 8 8 5 8 9 8 5 3 6 10 10 10 10
16 17 14 16 20 22 21 18 22 26 23 24 26 17 7 4 6 8 5 3 3 4 6 7 6 8 10 9 6 6 5 3 6 5 4 5 5 5 4 4 6 4 3 5 4 1 1 5 2 2 2 6 7 6 3 1 0 4 5 5 5 3 1 3 3 1 4 5 4 2 1 3 5 4 8 10 9 9 10 9 7 4 6 9 8 9 10 8
16 17 16 15 16 19 19 15 18 23 23 25 22 10 4 5 7 9 9 5 2 2 4 6 10 10 10 8 6 7 4 1 6 6 4 5 5 6 5 5 5 3 4 4 3 5 4 4 4 5 3 8 8 5 7 6 4 5 4 6 5 5 5 4 3 3 4 4 4 3 1 3 2 3 7 8 9 12 11 9 10 12 16 14 11 11 11 7
17 19 18 15 15 18 20 15 13 20 25 24 14 5 6 8 7 8 9 5 2 2 4 7 11 10 8 4 4 8 4 2 7 6 5 7 6 7 6 6 8 5 5 5 2 3 4 5 6 3 3 11 9 5 7 7 2 3 3 5 3 5 6 3 3 6 4 1 3 2 4 5 4 6 8 7 8 10 12 15 16 19 23 19 16 14 10 5
19 22 21 19 18 18 20 19 14 17 25 19 8 5 8 8 6 6 7 5 4 5 8 7 6 6 6 3 4 8 3 2 7 5 4 5 3 7 8 6 10 9 7 7 3 2 3 4 4 3 1 6 5 2 4 4 2 2 3 4 5 4 7 3 2 0 3 2 4 2 5 6 3 7 8 5 7 8 9 14 18 23 26 24 21 15 9 8
19 24 26 26 22 16 19 23 17 18 23 14 5 7 7 7 4 3 4 7 9 11 11 6 3 5 6 4 5 9 4 3 6 5 4 3 2 6 8 5 9 13 11 8 3 3 5 1 4 2 1 3 1 1 1 2 4 5 3 6 3 1 3 3 1 2 2 3 5 3 7 6 2 5 5 1 5 10 10 13 18 22 22 22 22 17 13 12
15 20 26 30 27 18 18 23 20 20 18 8 6 9 6 8 7 4 6 10 11 10 7 4 4 4 6 6 5 8 7 5 6 6 4 4 4 7 10 5 9 16 17 11 4 3 5 2 4 1 2 3 2 1 1 3 3 5 4 3 3 2 1 2 2 2 2 3 5 3 5 5 4 6 4 3 7 11 12 11 11 14 17 21 23 21 18 14
13 13 15 25 31 26 20 22 23 22 14 5 8 9 7 9 8 5 12 14 9 6 6 5 4 3 5 7 5 5 7 7 8 6 4 5 5 7 13 10 8 16 21 16 7 3 4 4 4 1 1 2 3 2 5 1 1 2 1 1 2 3 4 3 3 4 4 3 4 3 3 4 5 6 7 9 12 11 11 10 7 12 18 21 22 22 19 14
15 8 7 16 28 31 26 25 23 17 9 7 10 8 5 6 5 7 15 16 8 5 5 4 4 5 5 6 5 6 6 5 9 7 4 7 5 4 11 12 6 11 19 16 7 1 3 4 4 2 3 1 2 4 7 8 5 3 3 3 2 1 2 1 1 3 4 4 3 2 5 6 6 5 8 9 10 8 9 8 8 13 18 18 18 18 16 12
14 8 8 14 19 28 32 26 17 11 6 7 9 5 3 1 2 9 17 16 9 6 6 5 6 7 6 6 5 6 5 4 8 7 3 7 7 4 10 15 10 9 11 9 7 4 3 3 4 2 1 3 5 5 6 10 9 7 6 7 7 5 4 2 3 2 2 3 4 3 6 9 5 3 4 6 7 8 10 10 9 14 16 12 9 10 11 10
11 4 7 13 13 25 34 18 3 6 8 8 7 3 2 2 1 6 14 14 8 4 4 5 6 6 6 7 6 6 7 5 6 7 4 8 10 6 10 19 20 18 13 8 8 7 4 4 5 3 4 5 5 5 1 5 5 4 4 4 5 4 4 5 5 4 1 3 3 4 3 9 3 1 2 3 5 7 9 8 7 9 9 6 6 9 10 10
11 5 6 13 16 25 26 7 2 5 5 4 3 1 2 2 2 2 5 8 6 4 4 3 5 6 5 5 6 8 9 6 7 9 6 7 9 9 12 20 23 19 12 5 4 5 4 3 3 1 3 2 4 5 4 3 2 2 2 2 4 4 4 6 5 4 3 5 4 3 4 9 4 3 2 2 1 5 7 6 5 1 2 4 8 9 9 9
10 10 10 15 22 27 18 3 2 7 6 1 2 2 3 1 1 2 2 3 3 3 5 4 5 7 5 4 6 9 10 6 6 10 7 4 7 9 14 23 23 14 10 9 9 10 7 3 4 4 0 3 4 4 3 3 1 2 3 4 7 8 6 3 2 3 3 7 7 6 7 8 4 5 4 4 5 3 1 3 4 5 7 5 4 4 5 7
6 8 12 17 25 27 18 9 7 6 6 4 2 6 7 2 1 3 2 3 4 2 3 4 6 7 5 6 6 7 11 9 5 7 7 4 3 4 12 24 24 15 13 16 17 15 9 4 6 7 6 6 4 4 4 2 2 2 4 6 8 10 11 6 2 3 7 9 7 6 10 9 4 5 5 6 6 6 7 7 5 7 10 9 5 5 10 14
3 5 6 11 18 17 12 16 16 7 6 7 3 6 10 7 3 3 3 3 3 2 1 2 4 7 5 7 8 6 11 12 6 5 7 7 3 1 9 22 26 21 16 16 18 14 4 3 8 10 11 11 9 8 6 6 6 5 8 9 10 11 13 10 5 6 10 7 5 8 12 13 10 4 3 6 4 4 6 5 5 8 12 14 12 12 16 17
3 2 4 5 8 11 6 11 16 8 7 11 6 5 13 13 5 0 3 5 2 1 1 3 1 6 7 10 9 7 10 11 6 6 8 8 4 1 5 13 19 21 15 14 19 13 3 3 10 11 12 13 10 8 9 10 11 12 13 13 12 13 14 13 11 13 11 5 7 13 11 12 17 11 8 10 7 5 9 10 12 13 13 15 17 20 23 24
6 2 5 7 4 4 4 7 12 10 9 11 6 4 12 16 11 5 6 6 1 1 1 2 3 7 9 10 8 5 7 9 8 7 6 6 3 1 2 2 5 10 8 10 15 10 3 4 8 8 11 13 10 7 10 12 11 11 13 15 16 16 17 17 19 19 12 8 12 17 12 14 19 11 10 13 11 10 13 13 12 10 12 17 23 27 28 28
10 4 3 6 4 4 6 10 13 11 10 11 6 5 9 14 16 13 7 3 2 3 3 4 6 8 8 7 7 7 7 8 9 7 5 5 5 4 4 1 1 4 4 6 9 5 3 5 7 9 10 12 12 9 10 11 8 6 11 14 16 19 21 22 22 20 15 12 16 17 11 15 17 7 8 14 15 12 12 13 13 14 18 22 23 25 27 27
11 7 4 3 3 4 7 10 11 8 9 11 8 6 7 11 16 16 9 7 6 5 6 8 9 7 5 4 4 7 7 7 8 8 8 8 6 5 5 5 3 2 2 4 3 3 4 5 5 7 6 9 13 11 7 9 8 7 9 12 15 18 20 19 17 14 12 12 15 14 12 15 11 6 8 16 15 12 12 13 17 21 22 22 22 24 24 23
14 8 5 2 1 4 5 5 7 5 5 7 7 6 7 10 13 11 9 14 14 8 8 12 12 5 2 3 4 5 4 4 6 6 7 8 8 7 5 6 8 7 4 4 2 3 4 3 1 4 4 9 12 9 6 7 5 6 10 15 17 15 12 11 12 12 12 13 14 13 13 16 7 6 8 14 10 10 14 15 17 19 20 20 21 20 17 14
19 12 7 4 2 4 4 3 5 5 3 5 7 6 6 8 9 8 6 11 19 20 16 15 12 6 3 5 7 5 4 9 11 10 11 9 8 8 5 4 8 8 7 6 3 3 5 4 2 4 6 11 10 5 7 7 4 9 15 18 17 11 8 8 10 13 14 13 11 11 13 15 7 7 7 8 5 8 16 15 10 10 12 12 11 10 10 11
Wind_Direction
185 185 186 188 190 189 183 180 180 179 177 176 177 180 181 181 185 192 198 201 201 199 193 190 187 187 190 195 199 191 191 186 170 175 173 178 192 193 196 208 204 189 182 181 173 158 151 146 148 136 141 162 174 175 185 192 187 150 107 91 265 240 199 289 234 173 142 148 176 179 171 144 150 167 144 126 127 137 145 159 159 171 178 169 148 142 162 179
185 185 187 188 191 192 186 182 181 182 180 178 178 180 183 184 188 193 198 201 200 198 192 189 186 187 192 195 196 190 193 189 180 190 186 186 198 206 212 206 199 191 187 180 166 157 145 128 134 145 155 174 170 164 167 176 175 152 94 102 219 207 26 345 314 151 134 157 172 178 176 157 170 175 163 165 154 148 148 162 175 182 188 188 175 167 174 180
187 186 189 189 192 193 189 185 183 184 183 180 180 180 183 187 191 194 197 200 199 196 191 188 187 189 194 196 192 186 194 196 202 211 203 198 199 204 206 202 197 191 188 181 173 166 149 130 161 182 184 193 181 167 162 157 169 163 83 102 236 205 148 10 32 80 153 160 160 175 183 165 172 174 171 180 165 167 180 181 191 203 206 204 193 184 184 187
189 188 189 190 192 194 191 188 185 186 184 182 181 181 184 189 194 196 197 197 196 195 190 188 188 191 195 196 188 183 188 201 221 219 206 203 204 193 190 194 192 190 186 183 187 179 155 137 172 194 204 212 183 171 172 159 164 141 110 153 232 194 136 6 35 54 143 157 157 167 159 139 162 173 178 169 143 215 222 207 208 214 214 212 205 199 197 197
191 190 190 192 193 195 194 191 189 188 187 184 182 183 186 189 195 197 198 196 195 193 190 189 190 192 196 194 189 182 167 140 242 208 198 203 201 187 184 190 186 185 181 181 192 184 168 155 162 196 221 219 163 161 190 173 152 83 105 131 106 158 118 328 54 62 131 153 153 153 137 140 156 170 182 175 162 217 231 223 222 224 223 216 209 205 205 206
194 191 190 193 194 196 197 194 192 190 190 188 185 186 188 191 195 198 199 197 194 192 190 190 191 193 196 195 192 185 172 135 168 184 193 200 193 181 180 182 175 175 175 176 185 178 172 165 169 204 211 197 170 153 169 181 160 93 129 78 61 142 133 153 108 72 124 141 135 139 144 151 149 168 196 204 204 196 203 211 215 219 221 218 212 207 207 210
199 195 191 193 194 196 198 198 196 193 193 192 190 189 190 193 194 197 199 197 195 191 191 190 192 195 195 197 194 194 202 221 248 171 188 188 177 172 168 169 165 166 168 170 177 170 167 172 198 216 191 163 180 157 144 168 149 109 170 85 83 122 124 147 135 91 117 127 125 134 144 156 157 178 210 224 219 210 209 208 219 217 200 202 207 206 206 212
204 200 196 193 193 194 198 200 198 196 196 196 194 193 193 194 195 197 198 197 196 191 191 191 192 195 194 198 194 196 219 234 236 177 180 173 164 163 160 162 161 161 162 164 165 162 175 194 217 224 224 192 167 150 133 128 88 89 141 138 116 114 125 154 145 114 115 118 127 146 148 158 177 204 237 238 226 216 226 241 252 250 210 199 203 206 207 214
209 203 199 198 196 193 196 200 200 199 199 199 198 196 196 196 196 197 197 197 195 192 192 191 192 194 195 199 193 198 222 222 210 178 172 167 163 160 157 156 155 159 162 166 163 167 189 195 212 211 181 160 145 123 117 122 46 121 140 141 130 124 134 148 150 130 120 128 141 160 198 264 200 248 263 251 240 223 226 238 243 244 235 225 224 227 229 232
213 205 201 202 200 196 195 197 200 201 200 201 200 200 199 198 197 197 197 195 195 193 192 192 192 192 196 197 190 202 218 207 202 184 170 167 167 163 159 154 154 162 162 168 173 178 186 163 149 158 123 118 128 107 98 123 135 134 132 132 134 140 140 142 152 140 128 129 135 139 292 291 221 167 261 254 244 223 223 229 235 238 237 238 240 242 244 246
218 209 204 204 203 200 197 197 200 201 201 202 201 203 202 200 200 198 196 194 193 192 192 193 192 193 198 198 195 202 204 195 196 183 170 167 170 169 169 162 159 168 168 169 177 180 179 163 152 158 136 121 121 102 100 115 123 131 128 116 131 145 142 153 150 153 148 120 139 119 335 300 64 157 252 256 248 228 220 222 230 235 238 240 242 247 249 250
222 214 208 206 205 202 199 198 200 202 201 201 202 204 204 203 202 199 196 193 192 191 192 193 191 195 198 204 211 212 209 193 188 178 171 168 171 175 176 172 167 176 176 166 172 175 168 166 173 164 142 144 130 97 114 124 122 132 127 102 129 88 96 196 169 167 170 124 160 106 2 300 244 220 254 266 250 229 217 218 226 232 238 242 245 247 248 252
226 218 212 208 206 204 202 198 200 204 202 201 202 204 205 205 203 201 196 192 192 192 192 193 192 195 194 207 218 218 224 194 182 177 173 172 174 178 177 174 170 173 177 164 162 168 165 164 160 131 127 142 133 121 131 125 123 138 129 103 114 27 329 230 186 168 160 127 163 121 351 282 259 246 263 276 248 225 214 215 222 231 238 241 244 244 248 252
229 221 215 210 207 206 205 200 199 202 202 201 201 203 205 205 205 202 196 193 194 193 193 193 193 194 196 211 222 217 216 189 182 181 178 177 176 174 169 161 158 162 168 160 154 163 167 163 147 122 119 129 126 126 115 85 112 133 97 71 102 93 289 269 177 158 148 163 172 115 162 261 277 277 284 272 237 221 215 215 220 230 238 242 245 246 251 253
230 224 217 212 208 206 206 203 199 199 201 201 199 201 202 202 204 200 196 195 194 194 193 194 193 190 198 219 222 206 198 188 187 186 182 180 179 172 161 153 151 152 152 152 154 159 162 161 153 126 110 120 123 118 73 26 26 71 94 320 336 136 250 303 191 167 155 191 186 121 164 264 276 287 303 220 218 218 219 224 226 233 241 247 250 251 253 254
229 225 219 213 208 206 206 204 200 198 199 199 198 199 199 200 201 198 198 195 193 193 192 196 196 186 187 212 206 192 188 189 189 190 188 183 182 172 156 151 146 145 143 143 149 154 155 148 135 123 117 125 123 100 66 38 346 5 111 222 276 140 203 300 284 191 156 145 202 181 212 273 271 271 272 185 212 218 223 232 233 238 244 247 249 249 250 253
230 225 220 213 208 206 204 203 200 198 197 196 194 194 195 197 196 196 195 191 190 188 185 190 191 191 213 212 192 190 191 190 188 191 189 182 181 169 158 150 138 140 137 136 143 149 149 136 124 128 118 104 103 92 76 43 299 307 62 203 235 168 159 227 286 231 149 125 212 218 215 252 261 271 271 243 229 227 228 235 241 245 248 250 249 247 248 250
231 225 220 213 208 204 202 201 198 195 195 192 190 189 189 190 191 190 186 183 178 169 174 176 167 180 236 214 192 194 196 191 187 187 184 181 178 167 161 146 132 135 132 131 135 136 136 115 109 107 36 25 83 101 107 200 200 201 190 185 254 220 165 195 240 214 151 123 215 209 230 252 261 274 271 264 261 251 242 242 249 255 257 258 254 249 249 250
234 227 219 212 207 202 199 198 195 192 191 189 187 183 180 177 175 179 179 176 167 155 177 181 167 155 229 195 189 191 192 187 182 180 179 178 174 167 157 139 139 136 125 128 111 123 126 84 78 93 159 215 200 143 163 198 169 161 173 151 157 187 239 234 238 222 140 133 236 224 234 252 259 270 270 267 265 259 255 253 254 258 260 260 257 253 252 253
235 228 219 212 205 199 195 194 193 189 186 185 180 173 168 160 148 164 177 177 175 160 347 184 179 174 90 174 183 178 173 175 177 177 177 175 170 163 148 141 147 124 103 150 142 135 112 88 130 183 193 208 215 180 172 175 139 127 118 101 136 150 297 276 249 311 90 127 247 234 238 258 256 258 263 265 265 260 257 253 252 256 259 259 258 255 254 256
231 228 224 215 204 196 191 190 190 186 183 182 178 170 166 165 153 166 174 180 187 168 48 176 182 191 121 174 182 171 157 162 175 178 176 174 168 158 155 149 126 94 259 142 120 76 89 106 215 217 205 201 205 174 139 106 90 91 103 83 31 73 284 282 221 306 38 76 266 266 275 274 264 254 255 259 260 254 250 247 249 254 257 260 260 258 258 260
227 228 225 213 200 193 189 186 186 184 181 181 180 174 172 177 180 188 173 178 198 185 107 172 183 193 162 168 178 169 154 149 170 181 175 170 169 167 166 149 112 158 203 107 94 48 65 187 240 230 201 140 93 103 99 88 85 78 94 92 28 275 257 334 348 333 39 106 271 303 307 279 275 268 252 245 240 247 251 249 252 255 258 261 260 261 262 262
226 228 220 207 195 191 188 184 183 182 181 182 181 176 174 179 182 186 173 159 198 200 213 196 189 192 168 160 172 170 163 157 170 180 174 170 171 170 163 149 134 158 142 114 125 102 105 243 246 221 154 96 61 65 81 70 72 82 97 107 233 272 124 316 317 302 281 182 279 308 304 278 279 281 268 252 241 245 252 253 256 258 258 261 263 265 266 266
222 226 217 203 192 189 185 181 181 181 183 184 181 179 176 177 178 175 171 150 173 201 213 206 194 199 187 168 174 174 168 172 181 179 176 173 168 161 167 167 142 139 173 159 138 142 203 255 251 117 94 100 97 66 81 87 28 343 124 137 201 244 140 182 297 312 324 347 346 336 319 291 284 285 282 282 253 241 246 247 251 254 254 258 263 265 265 266
217 225 215 199 190 185 180 180 182 182 185 185 181 179 175 176 178 174 168 136 29 196 208 203 199 206 200 187 180 172 155 164 180 181 179 176 167 153 169 180 157 163 203 167 125 150 235 270 132 105 70 85 106 93 125 132 89 315 235 175 181 158 126 82 16 27 27 344 320 36 352 295 297 295 277 298 315 256 243 233 241 249 251 253 257 260 263 267
215 221 205 192 186 180 178 182 183 182 186 187 180 173 173 174 175 178 166 50 311 199 180 189 194 197 197 193 175 157 145 183 177 179 179 176 173 161 154 177 156 182 195 160 124 168 225 27 89 120 106 82 89 100 205 141 110 278 259 210 160 121 95 67 49 51 60 271 273 76 106 272 294 286 264 266 273 277 271 238 242 247 249 250 254 259 265 268
214 209 191 186 183 177 177 180 183 183 184 186 180 168 168 169 169 175 152 30 276 186 149 176 184 184 190 184 169 153 146 175 150 170 175 172 178 171 168 182 133 179 185 123 137 233 116 91 73 90 95 88 103 141 222 137 117 214 250 174 117 95 100 103 85 91 214 258 308 1 149 259 287 257 248 243 247 280 281 260 254 253 253 255 258 263 267 267
215 201 185 184 178 171 173 178 183 183 181 183 177 164 161 160 159 160 129 33 211 152 147 175 171 177 181 172 171 161 139 152 140 173 176 170 176 170 177 194 161 181 170 118 180 258 96 148 161 129 98 104 163 220 228 129 111 236 227 123 111 108 122 115 96 105 315 4 317 310 137 252 276 256 255 235 218 256 257 252 260 262 258 260 267 270 266 255
213 202 190 179 164 160 171 179 181 181 180 177 170 163 158 152 147 140 106 172 169 117 146 165 162 174 170 164 173 157 136 149 145 166 173 172 175 169 162 187 172 169 113 100 166 237 36 167 180 140 131 182 195 256 245 142 130 204 163 81 67 73 79 79 90 90 24 357 265 234 169 246 280 249 195 131 190 233 244 251 257 259 261 269 275 262 241 235
205 208 197 175 159 161 173 176 177 178 174 169 165 159 154 149 141 136 172 212 168 105 124 153 166 170 159 155 174 159 138 129 127 142 161 171 166 160 136 138 137 130 60 43 96 229 351 80 101 109 143 172 152 74 31 115 135 131 98 57 41 27 36 45 54 76 51 297 251 212 190 190 295 273 187 172 210 218 221 243 259 262 267 263 237 212 215 222
201 208 206 183 169 171 174 172 176 176 169 163 161 154 148 140 112 151 188 208 111 112 117 148 177 163 161 161 167 165 123 73 139 139 142 156 150 141 129 127 79 79 51 34 53 328 355 49 54 86 128 127 110 62 28 56 101 102 84 77 59 347 11 22 359 47 88 257 256 240 202 169 238 272 266 255 266 231 192 209 245 253 249 207 191 197 211 210
202 203 210 198 183 177 173 173 175 173 166 163 162 156 145 124 182 206 200 136 139 190 169 174 197 171 166 161 152 157 124 118 167 151 143 151 163 177 166 176 149 100 200 195 144 333 344 283 266 56 149 158 116 77 25 10 34 79 95 98 92 334 5 1 312 26 219 245 259 268 212 199 237 255 269 271 285 259 200 200 216 210 195 201 198 205 209 199
198 200 204 204 198 187 177 174 176 173 166 165 164 154 128 125 194 213 213 172 186 196 159 152 163 157 154 152 161 163 130 147 180 164 152 144 164 205 232 225 175 134 181 181 139 128 300 310 309 75 277 212 157 131 145 281 185 140 136 129 135 141 140 252 262 290 264 260 279 301 160 249 274 274 242 243 261 249 211 204 222 259 286 264 234 222 217 204
189 197 200 200 204 199 189 178 174 174 168 164 160 148 138 176 199 208 210 214 190 127 124 138 138 145 162 167 176 165 124 154 175 150 138 140 157 207 233 243 210 118 109 150 155 164 187 288 220 180 204 188 183 180 163 149 156 180 159 136 155 167 169 201 207 208 247 277 300 305 224 205 216 263 246 246 271 265 249 253 268 282 280 271 259 244 225 213
191 198 204 203 201 199 197 190 176 174 170 163 157 156 177 188 205 207 203 203 177 102 92 123 131 145 178 180 175 176 153 177 179 149 150 169 177 190 192 210 204 161 128 162 202 164 173 248 235 217 167 167 180 198 149 117 107 226 139 120 185 192 156 153 190 182 176 310 302 257 232 213 206 270 277 281 291 273 261 271 277 274 270 263 253 242 225 230
201 201 208 213 205 193 194 193 183 177 172 163 159 187 196 204 201 191 184 163 157 131 109 114 123 143 174 166 184 198 183 127 166 163 181 188 193 191 192 203 195 186 172 165 181 154 158 267 292 8 59 170 175 181 150 139 184 196 148 182 220 179 126 128 257 211 99 256 275 211 246 283 312 287 279 273 289 291 277 275 270 263 264 260 249 236 233 254
207 205 209 216 211 195 189 189 185 181 175 167 186 198 208 224 192 138 153 146 141 136 127 140 158 149 168 169 186 196 183 118 163 177 187 188 229 196 194 218 196 192 192 174 185 191 153 236 306 60 158 247 278 69 47 55 126 138 181 218 211 100 87 112 224 341 54 253 271 217 239 275 307 279 302 7 267 273 268 263 260 257 258 257 250 241 240 252
209 210 213 216 214 202 185 182 183 180 172 166 214 214 222 220 197 155 145 139 136 140 140 164 159 142 171 178 183 185 173 162 180 188 175 186 239 196 175 199 202 198 199 181 188 224 148 174 298 43 187 279 1 120 219 6 83 136 182 198 127 119 228 123 154 207 175 241 277 270 252 246 201 229 280 281 243 248 253 252 254 255 252 252 252 249 248 254
211 216 222 220 216 209 189 176 178 175 166 175 213 216 221 208 205 188 159 148 142 150 160 187 169 136 176 174 154 167 180 177 175 181 177 184 235 203 177 184 199 200 196 181 183 227 143 178 256 307 245 306 26 160 197 207 14 52 75 111 107 139 178 170 163 172 163 202 259 295 291 251 224 205 202 230 238 234 242 248 245 244 243 247 253 253 256 258
210 215 256 230 215 211 194 171 170 171 166 201 210 213 227 204 202 208 180 164 160 171 173 190 170 151 172 172 153 165 183 176 170 183 198 185 210 234 191 186 183 190 189 181 184 186 121 189 224 311 335 281 181 211 191 173 172 171 164 194 208 114 117 166 193 146 139 163 205 270 285 262 244 206 184 215 240 230 225 231 236 240 238 244 255 261 267 258
198 194 244 232 218 211 193 169 163 175 182 222 224 223 246 207 176 222 211 192 185 194 177 164 165 162 158 165 173 175 165 158 175 187 205 192 202 240 205 189 169 154 164 175 195 196 173 179 168 159 261 203 226 254 201 186 187 177 182 195 187 163 134 160 245 256 125 161 176 189 270 266 237 200 198 217 238 231 219 220 234 245 240 237 253 271 270 241
202 190 221 222 224 204 187 170 156 181 183 218 225 213 258 332 48 230 226 213 207 211 181 166 173 170 162 170 177 165 157 164 183 187 206 209 206 216 202 186 170 158 155 175 201 187 147 109 125 175 221 208 248 295 219 193 195 165 184 194 168 150 132 152 212 244 178 231 202 136 262 271 261 23 315 242 213 193 194 203 219 248 254 243 263 273 250 217
214 245 220 209 219 203 184 158 358 193 197 222 200 193 315 324 347 300 238 216 207 189 182 191 180 177 184 177 162 161 167 175 188 193 207 219 217 220 199 179 168 161 155 165 198 171 131 108 133 198 315 337 321 330 10 37 87 141 207 166 147 172 168 158 181 177 169 230 213 145 247 265 284 345 328 301 250 167 153 140 142 167 305 269 263 251 213 201
212 240 239 207 200 196 188 137 100 192 221 227 122 250 280 339 282 278 278 235 236 183 177 192 181 179 184 150 148 171 180 181 199 203 205 211 217 220 199 180 170 164 172 179 177 172 173 171 142 138 331 342 342 332 333 347 62 179 221 192 181 187 171 149 143 135 215 229 191 180 241 252 294 342 346 352 341 308 307 22 31 11 359 337 276 224 216 258
195 224 245 225 202 191 189 191 171 178 209 196 200 229 229 283 252 230 275 309 317 304 190 208 191 173 165 153 155 176 187 191 198 199 206 218 221 213 193 186 178 176 192 191 175 166 172 183 156 158 192 207 216 219 213 212 158 190 227 198 188 182 171 177 187 178 230 229 181 193 245 252 280 355 356 351 346 325 318 336 351 355 347 332 298 278 288 287
177 195 226 235 227 217 203 188 179 176 187 181 198 218 214 235 254 223 237 260 295 291 267 288 191 172 166 166 169 183 198 206 198 173 192 205 218 259 187 188 187 190 196 186 170 159 144 196 184 186 200 202 207 210 178 138 143 195 216 195 191 192 183 183 182 198 223 224 194 220 239 254 262 258 291 298 301 292 294 298 297 312 311 297 288 299 305 298
203 206 177 186 231 243 236 182 176 184 188 180 183 192 202 216 229 223 208 216 269 280 269 334 189 191 193 178 179 190 198 207 198 171 185 194 208 304 184 187 191 195 195 175 167 158 95 214 201 200 211 213 212 202 168 154 171 195 202 194 197 199 189 190 204 215 210 189 236 239 220 240 255 232 216 254 261 260 270 271 280 296 303 302 307 310 303 296
208 235 192 176 184 214 220 188 180 184 183 183 187 174 193 206 207 201 205 205 247 336 211 275 239 220 206 184 182 181 178 196 207 197 187 184 180 123 150 192 193 191 183 165 171 164 116 209 209 200 217 232 231 199 173 177 186 192 196 197 200 199 195 200 213 219 204 179 234 242 207 220 247 227 197 231 233 230 252 265 276 293 301 303 303 298 291 290
217 258 225 195 198 177 172 178 183 185 178 179 192 187 189 199 202 207 209 175 202 226 192 213 227 224 220 203 194 189 174 181 203 206 177 168 180 157 145 177 245 192 157 154 179 176 152 207 208 191 212 237 238 218 186 184 189 192 203 206 203 202 202 206 214 219 212 206 233 245 233 237 246 206 184 230 233 231 255 277 287 291 293 293 291 286 285 289
215 236 231 214 235 200 178 173 179 193 184 179 198 203 188 197 202 208 212 195 201 201 186 215 227 214 217 227 210 216 207 183 194 199 176 175 193 182 171 181 175 167 149 154 180 182 188 219 203 173 200 241 240 231 188 175 189 203 219 225 220 214 210 211 216 219 216 225 240 251 260 258 244 167 198 241 249 260 273 276 280 286 289 288 285 284 287 293
210 204 201 230 250 192 193 177 165 183 189 186 203 195 188 209 205 195 205 212 215 211 194 213 226 217 220 237 223 240 236 175 175 178 162 175 191 183 187 190 167 159 172 176 165 160 186 226 96 129 192 236 240 230 175 158 188 219 233 231 224 218 213 211 214 214 210 217 232 241 251 257 242 147 211 245 246 257 269 269 273 282 287 289 292 297 308 323
216 216 227 252 254 186 185 166 161 184 192 189 204 197 195 214 195 169 193 218 220 223 220 217 219 211 218 239 233 225 158 116 110 106 95 91 118 123 104 132 157 162 168 166 153 153 166 178 155 147 203 238 243 199 141 134 183 235 239 232 221 205 188 200 219 223 214 208 215 224 236 251 244 146 198 246 219 235 268 281 289 289 292 304 319 337 358 5